Location: Fort Hays State University
(38.8712°N, 99.3432°W)
Time: 10:41:09
(UTC-05:00)

Cosmos 2279 Rocket - Visible Passes

Search period start: 25 September 2016 00:00
Search period end: 05 October 2016 00:00
Orbit: 964 x 980 km, 82.9° (Epoch: 24 September)

Date Brightness Start Highest point End Pass type
(mag) Time Alt. Az. Time Alt. Az. Time Alt. Az.
25 Sep 5.5 21:20:11 19° NE 21:20:11 19° NE 21:22:20 10° NNE visible
25 Sep 5.5 23:04:45 30° NNW 23:04:45 30° NNW 23:08:12 10° N visible
26 Sep 5.0 21:43:54 31° NE 21:43:54 31° NE 21:47:19 10° NNE visible
26 Sep 6.0 23:28:27 22° NW 23:28:27 22° NW 23:31:51 10° NNW visible
27 Sep 4.5 22:07:31 48° N 22:07:31 48° N 22:11:52 10° N visible
27 Sep 6.5 23:52:03 13° WNW 23:52:03 13° WNW 23:54:31 10° NW visible
28 Sep 5.3 20:46:27 20° ENE 20:46:27 20° ENE 20:49:38 10° NE visible
28 Sep 4.7 22:30:59 48° NW 22:30:59 48° NW 22:36:04 10° N visible
29 Sep 4.4 21:09:42 37° ENE 21:09:42 37° ENE 21:14:52 10° NNE visible
29 Sep 5.5 22:54:12 29° W 22:54:33 30° WNW 22:59:55 10° NNW visible
30 Sep 3.8 21:32:30 61° SE 21:33:23 70° E 21:39:33 10° NNE visible
30 Sep 6.3 23:16:57 14° W 23:19:16 17° WNW 23:23:05 10° NNW visible
01 Oct 5.3 20:09:26 10° ESE 20:13:07 17° E 20:16:48 10° NE visible
01 Oct 4.2 21:53:30 21° SSW 21:57:41 67° W 22:03:53 10° N visible
02 Oct 7.0 07:05:39 10° NE 07:08:29 13° ENE 07:11:20 10° E visible
02 Oct 4.6 20:31:47 10° SE 20:37:04 30° E 20:42:21 10° NNE visible
02 Oct 5.2 22:16:32 10° SW 22:22:10 37° WNW 22:27:53 10° N visible
03 Oct 4.0 20:55:09 10° SSE 21:01:09 56° E 21:07:12 10° NNE visible
03 Oct 6.1 22:42:20 10° WSW 22:46:50 21° WNW 22:51:22 10° NNW visible
04 Oct 5.5 19:38:27 10° ESE 19:41:01 13° E 19:43:36 10° NE visible
04 Oct 3.9 21:19:14 10° S 21:25:25 82° W 21:31:39 10° N visible
04 Oct 6.8 23:10:07 10° W 23:11:41 11° WNW 23:13:16 10° NW visible
